GW3329 Weather Reports


time (UTC)temp
C
wind
direction
speed
KPH
gust
KPH
rain 1hr
cm
rain 24hr
cm
rain mn
cm
humidity
%
barometer
mb
20260505093030 11 129 0.0 0.0 0.00 0.00 0.00 91 1017.7
20260505092527 11 173 0.0 0.0 0.00 0.00 0.00 91 1017.5
20260505092026 11 174 0.0 0.0 0.00 0.00 0.00 91 1017.5
20260505091522 11 170 0.0 0.0 0.00 0.00 0.00 91 1017.6
20260505091020 11 172 0.0 0.0 0.00 0.00 0.00 90 1017.9
20260505090518 11 183 0.0 0.0 0.00 0.00 0.00 90 1017.9
20260505090016 11 178 0.0 0.0 0.00 0.00 0.00 90 1017.9
20260505085514 11 167 0.0 0.0 0.00 0.00 0.00 89 1018.0
20260505085011 11 167 0.0 0.0 0.00 0.00 0.00 89 1018.2
20260505084509 11 166 0.0 0.0 0.00 0.00 0.00 88 1018.1
20260505084007 11 182 0.0 0.0 0.00 0.00 0.00 88 1018.1
20260505083504 11 189 0.0 0.0 0.00 0.00 0.00 88 1017.9
20260505083000 12 189 0.0 0.0 0.00 0.00 0.00 87 1018.2
20260505082456 12 181 0.0 0.0 0.00 0.00 0.00 88 1018.4
20260505081953 12 182 0.0 0.0 0.00 0.00 0.00 87 1018.2
20260505081450 12 182 0.0 0.0 0.00 0.00 0.00 87 1018.4
20260505080946 12 185 0.0 0.0 0.00 0.00 0.00 87 1018.4
20260505080443 12 172 0.0 0.0 0.00 0.00 0.00 87 1018.2
20260505075938 12 170 0.0 0.0 0.00 0.00 0.00 88 1018.3
20260505075435 12 158 0.0 0.0 0.00 0.00 0.00 88 1018.6
20260505074933 12 159 0.0 0.0 0.00 0.00 0.00 88 1018.5
20260505074430 12 170 0.0 1.6 0.00 0.00 0.00 87 1018.5
20260505073927 12 170 0.0 0.0 0.00 0.00 0.00 87 1018.5
20260505073425 12 164 0.0 0.0 0.00 0.00 0.00 87 1018.4
20260505072921 12 165 0.0 1.6 0.00 0.00 0.00 86 1018.7
20260505072417 12 156 0.0 0.0 0.00 0.00 0.00 85 1018.7
20260505071914 12 167 0.0 0.0 0.00 0.00 0.00 84 1018.6
20260505071410 12 192 0.0 0.0 0.00 0.00 0.00 84 1018.3
20260505070908 12 168 0.0 0.0 0.00 0.00 0.00 84 1018.7
20260505070404 12 170 0.0 1.6 0.00 0.00 0.00 84 1018.6
20260505065900 12 174 1.6 3.2 0.00 0.00 0.00 84 1018.5
20260505065357 12 175 0.0 1.6 0.00 0.00 0.00 84 1018.6
20260505064854 12 171 0.0 1.6 0.00 0.00 0.00 85 1018.6
20260505064351 12 194 3.2 4.8 0.00 0.00 0.00 85 1018.8
20260505063850 12 200 0.0 1.6 0.00 0.00 0.00 85 1018.7
20260505063345 12 161 0.0 0.0 0.00 0.00 0.00 85 1018.4
20260505062842 12 190 1.6 3.2 0.00 0.00 0.00 84 1018.5
20260505062339 12 171 0.0 1.6 0.00 0.00 0.00 83 1018.5
20260505061836 12 184 1.6 3.2 0.00 0.00 0.00 82 1018.5
20260505061334 12 174 3.2 6.4 0.00 0.00 0.00 81 1018.9
20260505060831 12 171 1.6 1.6 0.00 0.00 0.00 84 1018.7
20260505060328 12 184 1.6 3.2 0.00 0.00 0.00 84 1018.7
20260505055824 12 172 3.2 3.2 0.00 0.00 0.00 85 1018.6
20260505055320 12 174 0.0 1.6 0.00 0.00 0.00 86 1018.6
20260505054817 12 192 6.4 9.7 0.00 0.00 0.00 86 1018.8
20260505054314 12 207 1.6 1.6 0.00 0.00 0.00 85 1018.8
20260505053813 12 159 0.0 1.6 0.00 0.00 0.00 86 1018.9
20260505053309 12 169 0.0 0.0 0.00 0.00 0.00 87 1018.8
20260505052806 12 149 0.0 3.2 0.00 0.00 0.00 86 1018.8
20260505052304 12 156 0.0 4.8 0.00 0.00 0.00 86 1018.9
20260505051800 12 167 0.0 1.6 0.00 0.00 0.00 85 1019.0
20260505051258 12 171 0.0 1.6 0.00 0.00 0.00 84 1018.9
20260505050756 12 359 0.0 1.6 0.00 0.00 0.00 84 1019.0
20260505050254 12 309 1.6 3.2 0.00 0.00 0.00 84 1018.7
20260505041729 13 207 3.2 6.4 0.00 0.00 0.00 87 1018.5
20260505041226 13 177 1.6 6.4 0.00 0.00 0.00 87 1018.7
20260505040723 13 243 4.8 6.4 0.00 0.00 0.00 87 1018.5
20260505040220 13 167 0.0 4.8 0.00 0.00 0.00 87 1018.8
20260505035717 13 177 1.6 6.4 0.00 0.00 0.00 86 1018.7
20260505035213 13 160 1.6 6.4 0.00 0.00 0.00 85 1018.7
20260505034710 13 151 0.0 3.2 0.00 0.00 0.00 85 1018.7
20260505034207 13 86 0.0 1.6 0.00 0.00 0.00 84 1018.7
20260505033703 13 162 3.2 9.7 0.00 0.00 0.00 84 1018.7
20260505033201 13 249 3.2 6.4 0.00 0.00 0.00 84 1018.5
20260505032659 13 171 0.0 3.2 0.00 0.00 0.00 84 1018.5
20260505032155 13 147 1.6 3.2 0.00 0.00 0.00 83 1018.3
20260505031652 13 192 1.6 3.2 0.00 0.00 0.00 83 1018.5
20260505031149 13 176 3.2 4.8 0.00 0.00 0.00 83 1018.2
20260505030646 13 220 3.2 4.8 0.00 0.00 0.00 83 1018.3
20260505030141 13 217 3.2 4.8 0.00 0.00 0.00 83 1018.3
20260505025637 13 234 1.6 4.8 0.00 0.00 0.00 83 1018.3
20260505025136 13 296 3.2 4.8 0.00 0.00 0.00 83 1018.3
20260505024633 13 221 3.2 4.8 0.00 0.00 0.00 82 1018.3
20260505024130 13 166 1.6 3.2 0.00 0.00 0.00 82 1018.4
20260505023628 13 180 1.6 3.2 0.00 0.00 0.00 81 1018.3
20260505023125 13 266 3.2 6.4 0.00 0.00 0.00 81 1018.0
20260505022623 13 331 3.2 6.4 0.00 0.00 0.00 81 1018.0
20260505022119 14 176 1.6 4.8 0.00 0.00 0.00 80 1018.2
20260505021616 13 153 6.4 6.4 0.00 0.00 0.00 80 1018.0
20260505021113 14 248 4.8 9.7 0.00 0.00 0.00 79 1018.3
20260505020608 14 157 4.8 9.7 0.00 0.00 0.00 79 1018.4
20260505020105 14 183 3.2 12.9 0.00 0.00 0.00 80 1018.1
20260505015602 15 133 0.0 3.2 0.00 0.00 0.00 79 1018.2
20260505015058 15 167 1.6 9.7 0.00 0.00 0.00 80 1018.5
20260505014555 15 167 1.6 4.8 0.00 0.00 0.00 79 1018.3
20260505014052 15 169 3.2 6.4 0.00 0.00 0.00 78 1018.3
20260505013549 15 197 6.4 11.3 0.00 0.00 0.00 78 1018.2
20260505013047 15 166 1.6 11.3 0.00 0.00 0.00 76 1018.3
20260505012545 15 273 6.4 12.9 0.00 0.00 0.00 75 1018.5
20260505012042 15 227 4.8 12.9 0.00 0.00 0.00 75 1018.4
20260505011537 15 146 6.4 12.9 0.00 0.00 0.00 73 1018.3
20260505011035 15 270 3.2 4.8 0.00 0.00 0.00 74 1018.4
20260505010530 15 211 3.2 11.3 0.00 0.00 0.00 74 1018.4
20260505010027 15 251 1.6 12.9 0.00 0.00 0.00 74 1018.6
20260505005523 15 196 3.2 12.9 0.00 0.00 0.00 75 1018.6
20260505005021 15 220 8.0 14.5 0.00 0.00 0.00 73 1018.5
20260505004517 15 262 4.8 14.5 0.00 0.00 0.00 73 1018.6
20260505004014 15 172 6.4 11.3 0.00 0.00 0.00 73 1018.7
20260505003511 15 290 8.0 11.3 0.00 0.00 0.00 71 1018.6
20260505003009 15 120 4.8 14.5 0.00 0.00 0.00 71 1018.5
20260505002503 15 229 6.4 12.9 0.00 0.00 0.00 69 1018.7
20260505002003 15 170 6.4 16.1 0.00 0.00 0.00 69 1018.5
20260505001500 16 127 3.2 9.7 0.00 0.00 0.00 67 1018.7
20260505000956 16 148 6.4 9.7 0.00 0.00 0.00 65 1018.4
20260505000454 17 253 6.4 9.7 0.00 0.00 0.00 64 1018.3
20260504235951 16 232 8.0 14.5 0.00 0.00 0.00 64 1018.3
20260504235448 17 182 3.2 11.3 0.00 0.00 0.00 63 1018.4
20260504234945 16 164 1.6 14.5 0.00 0.00 0.00 64 1018.4
20260504234442 16 201 3.2 9.7 0.00 0.00 0.00 65 1018.3
20260504233938 17 348 6.4 16.1 0.00 0.00 0.00 66 1018.4
20260504233434 16 136 1.6 6.4 0.00 0.00 0.00 66 1018.3
20260504232931 17 187 4.8 16.1 0.00 0.00 0.00 64 1018.4
20260504232428 17 282 4.8 14.5 0.00 0.00 0.00 64 1018.3
20260504231925 17 165 6.4 11.3 0.00 0.00 0.00 62 1018.1
20260504231421 17 323 6.4 16.1 0.00 0.00 0.00 63 1018.2
20260504230918 17 164 6.4 12.9 0.00 0.00 0.00 63 1018.3
20260504230415 17 136 9.7 16.1 0.00 0.00 0.00 65 1018.4
20260504225914 17 249 6.4 17.7 0.00 0.00 0.00 67 1018.4
20260504225410 17 204 9.7 22.5 0.00 0.00 0.00 66 1018.4
20260504224908 18 227 6.4 17.7 0.00 0.00 0.00 64 1018.6
20260504224404 18 195 6.4 14.5 0.00 0.00 0.00 62 1018.8
20260504223901 18 287 6.4 9.7 0.00 0.00 0.00 59 1018.7
20260504223356 18 217 8.0 16.1 0.00 0.00 0.00 63 1018.7
20260504222853 17 204 11.3 20.9 0.00 0.00 0.00 63 1018.8
20260504222350 18 178 4.8 12.9 0.00 0.00 0.00 60 1018.9
20260504221848 18 195 8.0 17.7 0.00 0.00 0.00 61 1018.9
20260504221344 17 159 4.8 20.9 0.00 0.00 0.00 62 1018.8
20260504220842 17 198 9.7 14.5 0.00 0.00 0.00 60 1019.0
20260504220338 17 250 11.3 22.5 0.00 0.00 0.00 59 1019.3
20260504215836 17 161 11.3 20.9 0.00 0.00 0.00 58 1019.0
20260504215332 18 294 4.8 24.1 0.00 0.00 0.00 59 1018.9
20260504214828 18 245 9.7 17.7 0.00 0.00 0.00 56 1019.1
20260504214325 17 196 19.3 25.7 0.00 0.00 0.00 59 1019.1
20260504213822 18 180 4.8 17.7 0.00 0.00 0.00 58 1019.2
20260504213318 18 221 6.4 22.5 0.00 0.00 0.00 56 1018.9
20260504212815 18 217 9.7 22.5 0.00 0.00 0.00 56 1019.3
20260504212311 18 201 4.8 12.9 0.00 0.00 0.00 54 1019.3
20260504211809 18 185 12.9 17.7 0.00 0.00 0.00 55 1019.0
20260504211305 18 140 4.8 12.9 0.00 0.00 0.00 54 1019.2
20260504210803 18 208 6.4 17.7 0.00 0.00 0.00 54 1019.1
20260504210259 18 237 16.1 25.7 0.00 0.00 0.00 53 1019.3
20260504205757 17 172 9.7 24.1 0.00 0.00 0.00 55 1019.1
20260504205254 18 234 11.3 17.7 0.00 0.00 0.00 53 1019.2
20260504204752 18 200 8.0 22.5 0.00 0.00 0.00 56 1019.2
20260504204250 18 166 9.7 17.7 0.00 0.00 0.00 53 1019.2
20260504203750 18 159 6.4 25.7 0.00 0.00 0.00 53 1019.3
20260504203246 18 239 9.7 22.5 0.00 0.00 0.00 52 1019.1
20260504202741 19 201 11.3 16.1 0.00 0.00 0.00 50 1019.0
20260504202239 20 196 16.1 24.1 0.00 0.00 0.00 51 1019.0
20260504201735 19 179 16.1 22.5 0.00 0.00 0.00 53 1019.1
20260504201233 20 192 8.0 17.7 0.00 0.00 0.00 53 1019.0
20260504200731 20 352 6.4 17.7 0.00 0.00 0.00 50 1018.9
20260504200226 19 187 3.2 12.9 0.00 0.00 0.00 51 1019.0
20260504195723 19 299 6.4 14.5 0.00 0.00 0.00 46 1018.7
20260504195219 20 354 6.4 12.9 0.00 0.00 0.00 50 1018.9
20260504194716 20 272 6.4 11.3 0.00 0.00 0.00 49 1019.0
20260504194212 20 184 4.8 9.7 0.00 0.00 0.00 49 1019.0
20260504193709 20 165 4.8 16.1 0.00 0.00 0.00 48 1019.3
20260504193206 19 204 12.9 20.9 0.00 0.00 0.00 51 1019.4
20260504192704 19 249 6.4 14.5 0.00 0.00 0.00 53 1019.0
20260504192202 20 179 3.2 9.7 0.00 0.00 0.00 51 1019.1
20260504191701 20 172 4.8 6.4 0.00 0.00 0.00 52 1019.0
20260504191156 18 156 11.3 24.1 0.00 0.00 0.00 53 1019.2
20260504190652 19 356 3.2 14.5 0.00 0.00 0.00 56 1019.3
20260504190149 18 184 4.8 11.3 0.00 0.00 0.00 57 1019.2
20260504185645 18 191 3.2 9.7 0.00 0.00 0.00 56 1019.1
20260504185142 19 195 3.2 12.9 0.00 0.00 0.00 58 1019.4
20260504184638 18 86 1.6 3.2 0.00 0.00 0.00 58 1019.2
20260504184133 18 182 6.4 16.1 0.00 0.00 0.00 59 1019.3
20260504183630 18 218 1.6 4.8 0.00 0.00 0.00 57 1019.3
20260504183128 18 271 8.0 11.3 0.00 0.00 0.00 57 1019.3
20260504182626 18 269 6.4 14.5 0.00 0.00 0.00 59 1019.4
20260504182123 18 260 8.0 11.3 0.00 0.00 0.00 58 1019.6
20260504181620 19 193 12.9 16.1 0.00 0.00 0.00 55 1019.8
20260504181118 18 213 8.0 12.9 0.00 0.00 0.00 57 1019.3
20260504180617 18 220 9.7 17.7 0.00 0.00 0.00 58 1019.6
20260504180115 18 190 9.7 12.9 0.00 0.00 0.00 57 1019.3
20260504175612 18 160 3.2 6.4 0.00 0.00 0.00 58 1019.2
20260504175109 18 172 9.7 14.5 0.00 0.00 0.00 60 1019.2
20260504174607 19 181 8.0 12.9 0.00 0.00 0.00 56 1019.6
20260504174103 18 284 4.8 9.7 0.00 0.00 0.00 61 1019.4
20260504173600 18 125 3.2 11.3 0.00 0.00 0.00 60 1019.2
20260504173058 17 220 1.6 9.7 0.00 0.00 0.00 61 1019.3
20260504172554 17 341 4.8 12.9 0.00 0.00 0.00 63 1019.3
20260504172050 19 305 4.8 9.7 0.00 0.00 0.00 59 1019.3
20260504171547 17 345 3.2 6.4 0.00 0.00 0.00 63 1019.3
20260504171044 17 234 1.6 14.5 0.00 0.00 0.00 62 1019.1
20260504170540 17 43 0.0 3.2 0.00 0.00 0.00 61 1019.1
20260504150924 13 132 0.0 3.2 0.00 0.00 0.00 79 1018.7
20260504150420 13 132 3.2 4.8 0.00 0.00 0.00 80 1018.6
20260504140847 11 151 0.0 0.0 0.00 0.00 0.00 91 1018.7
20260504140343 11 152 0.0 0.0 0.00 0.00 0.00 91 1018.7
20260504130812 10 201 0.0 0.0 0.00 0.00 0.00 94 1018.5
20260504130308 10 201 0.0 0.0 0.00 0.00 0.00 95 1018.2
20260504120232 10 202 0.0 0.0 0.00 0.00 0.00 94 1018.1
20260504110659 10 258 0.0 0.0 0.00 0.00 0.00 93 1018.1
20260504110155 10 159 0.0 0.0 0.00 0.00 0.00 93 1018.1
20260504100615 11 172 0.0 1.6 0.00 0.00 0.00 90 1018.1
20260504100113 11 171 0.0 0.0 0.00 0.00 0.00 90 1018.0